User: anonymous   Login
Location: Utrecht
(52.0830°N, 5.1330°E)
Time: 15:57:05
(UTC+02:00)
Language:

Cosmos 1092 Rocket - Orbit

View from above orbital plane
View from above orbital plane
View from above satellite
View from above satellite

Ground track
Ground track

The orbit data is extracted from the following two-line orbital elements,

1 11327U 79030B   17111.75521175 -.00000008 +00000-0 -23367-4 0  9992
2 11327 082.9493 337.7647 0027278 340.3216 063.7153 13.76971214911167
Epoch (UTC): 21 April 2017 18:07:30
Eccentricity: 0.0027278
inclination: 82.9493°
perigee height: 954 km
apogee height: 995 km
right ascension of ascending node: 337.7647°
argument of perigee: 340.3216°
revolutions per day: 13.76971214
mean anomaly at epoch: 63.7153°
orbit number at epoch: 91116

The dashed part of the orbit path shows where the satellite is in the earth's shadow,  

DLR